Temp
4 4 4 3 3 4 4 4 4 4 3 3 3 3 3 3 3 3 3 3 3 3 3 3 3 3 3 3 3 3 3 3 3 3 3 3 3 3 3 3 3 3
4 4 4 3 4 4 5 4 4 4 4 3 3 3 3 3 3 3 3 3 3 3 3 4 4 3 3 3 3 3 3 3 3 3 3 3 3 3 3 3 3 3
3 3 3 4 4 4 4 4 4 4 4 3 3 3 3 3 3 3 3 3 3 3 4 4 4 3 3 3 3 3 3 3 3 3 3 3 3 3 2 2 2 3
4 4 4 4 4 4 4 4 4 4 4 3 3 3 3 3 3 3 3 3 3 3 3 4 4 3 3 3 3 3 3 3 3 3 3 3 3 3 3 2 2 3
4 4 4 4 4 4 4 4 4 4 4 3 3 3 3 3 3 3 3 3 3 3 3 4 4 3 3 3 3 3 3 3 3 3 3 3 3 3 3 3 2 2
4 4 4 4 4 3 3 3 4 4 4 3 3 3 3 3 3 3 3 3 3 4 4 4 4 4 3 3 3 3 3 3 3 3 3 3 3 3 3 2 2 2
3 3 3 3 3 3 3 3 3 3 3 3 3 3 2 3 3 3 3 3 3 4 4 4 4 4 3 3 3 3 3 3 2 2 2 2 2 2 2 2 2 2
3 3 3 3 3 3 3 3 3 3 3 3 3 3 2 3 3 3 3 3 3 4 4 4 4 4 3 3 3 3 3 3 3 2 2 2 2 2 2 2 2 2
3 3 3 4 4 3 3 3 3 3 3 3 2 2 3 3 3 3 3 3 3 3 4 3 3 3 3 3 3 3 3 3 3 3 2 2 2 2 2 2 2 2
3 3 3 4 4 4 3 3 3 3 3 3 2 2 3 3 3 3 3 3 3 3 3 3 3 3 3 3 3 3 3 3 3 3 2 2 2 2 2 2 2 2
3 3 3 3 3 3 3 3 3 3 3 3 2 2 2 3 3 3 3 3 3 3 3 3 3 3 3 3 3 3 3 3 3 3 2 2 2 1 1 1 1 1
3 3 3 3 3 3 3 2 2 2 3 2 2 2 2 3 3 3 3 3 3 3 3 3 3 3 3 3 3 3 3 3 3 3 2 2 2 1 1 1 1 1
2 3 3 3 3 3 2 2 2 2 2 2 2 2 2 3 3 3 3 3 3 3 3 3 3 3 3 3 3 3 3 3 3 3 3 2 2 1 1 1 1 2
3 3 3 3 3 3 2 2 2 2 2 2 1 2 2 3 3 3 3 3 3 3 3 3 2 3 3 3 3 3 3 3 3 3 3 2 2 2 2 1 2 2
3 3 3 3 2 2 2 2 2 2 2 2 2 2 2 2 2 2 3 3 3 3 2 2 2 2 3 3 3 3 3 3 3 3 3 3 3 3 2 1 2 2
3 3 3 3 2 2 2 2 2 2 1 1 1 2 2 2 2 2 3 3 3 2 2 2 2 2 2 3 3 3 3 3 3 3 3 3 2 2 2 1 1 1
3 3 3 3 2 2 2 2 2 1 1 1 1 1 2 2 2 2 2 2 2 2 2 2 2 2 2 2 3 3 3 3 3 3 2 2 2 2 2 1 1 1
2 2 2 3 2 2 2 2 1 1 1 1 1 1 2 2 2 2 2 2 2 2 2 2 2 2 2 2 2 2 3 3 3 3 2 2 2 2 2 1 1 1
2 2 2 2 3 2 2 2 1 1 1 1 1 1 1 1 2 2 2 2 2 2 2 2 2 2 2 2 2 2 2 2 3 3 2 2 2 2 2 1 1 1
2 2 2 2 2 2 2 1 1 0 0 1 1 1 1 1 1 2 2 1 1 1 2 2 2 2 1 1 1 2 2 2 2 2 2 2 2 2 1 1 1 0
2 1 2 2 2 2 1 1 1 0 0 0 0 0 1 1 1 1 1 1 1 1 1 1 1 1 1 1 1 1 2 2 2 2 2 2 2 2 2 1 1 1
1 1 1 1 1 1 1 1 1 0 0 0 1 0 0 1 1 1 1 1 1 1 1 1 1 1 1 1 1 1 1 1 1 2 2 2 2 2 2 1 1 1
1 1 1 1 1 1 1 0 0 0 0 0 0 0 0 1 1 0 0 0 0 1 1 1 1 1 1 1 1 1 1 1 1 1 1 1 1 1 1 1 1 1
1 1 0 1 0 0 0 -0 -0 -0 -0 -0 -0 -0 0 0 0 -0 -0 -0 -0 0 0 0 0 0 0 0 0 1 1 1 1 1 1 1 1 1 1 1 1 0
0 0 0 0 1 0 0 -0 -0 -0 -0 -0 -0 -0 -0 -0 -1 -1 -1 -1 -1 -0 -0 -0 -0 0 -0 -0 0 0 0 0 0 0 0 0 0 0 0 0 0 -0
-1 -0 -0 0 0 0 0 0 -0 -0 -1 -1 -1 -1 -1 -1 -1 -1 -1 -1 -1 -1 -0 -0 -0 -0 -0 -0 -0 -0 -0 -0 -0 -0 -0 -0 -0 -0 -0 -0 -1 -1
Height
3119 3118 3118 3117 3117 3119 3121 3122 3124 3125 3126 3128 3130 3131 3132 3133 3133 3134 3134 3135 3136 3137 3138 3139 3140 3142 3143 3144 3145 3146 3146 3147 3148 3148 3149 3150 3151 3152 3153 3153 3154 3155
3117 3115 3115 3115 3115 3117 3119 3120 3122 3123 3125 3126 3128 3129 3130 3131 3131 3132 3133 3134 3135 3136 3137 3138 3139 3140 3142 3143 3144 3145 3145 3146 3147 3147 3148 3149 3150 3150 3151 3152 3153 3153
3114 3113 3113 3114 3114 3116 3117 3118 3119 3121 3123 3124 3125 3126 3127 3128 3129 3130 3131 3132 3134 3135 3136 3137 3138 3139 3140 3141 3142 3143 3144 3145 3145 3146 3147 3147 3148 3149 3150 3150 3151 3152
3112 3112 3113 3113 3114 3114 3115 3116 3117 3119 3121 3122 3123 3124 3125 3126 3127 3128 3130 3131 3132 3133 3134 3135 3136 3137 3139 3140 3141 3142 3143 3143 3144 3145 3145 3146 3147 3148 3148 3149 3150 3151
3111 3111 3111 3111 3112 3112 3113 3115 3116 3117 3119 3120 3122 3123 3124 3125 3126 3127 3128 3130 3131 3132 3133 3134 3135 3136 3137 3138 3139 3140 3141 3142 3143 3143 3144 3145 3146 3147 3147 3148 3149 3149
3108 3108 3108 3108 3109 3110 3111 3113 3114 3115 3117 3119 3120 3122 3123 3124 3125 3126 3127 3128 3130 3131 3132 3133 3133 3134 3135 3136 3137 3139 3139 3140 3141 3142 3143 3144 3145 3146 3147 3147 3148 3148
3103 3105 3105 3105 3106 3108 3110 3111 3113 3114 3115 3117 3119 3120 3122 3123 3124 3124 3125 3127 3128 3129 3130 3131 3132 3133 3133 3134 3136 3137 3138 3138 3139 3140 3141 3142 3143 3144 3146 3146 3147 3147
3099 3101 3102 3103 3105 3106 3108 3110 3112 3112 3113 3114 3116 3119 3120 3121 3122 3123 3123 3125 3126 3127 3128 3129 3130 3131 3132 3133 3134 3135 3136 3137 3138 3139 3140 3141 3142 3143 3144 3145 3146 3146
3097 3098 3100 3102 3104 3106 3107 3109 3110 3111 3111 3112 3115 3117 3118 3120 3120 3121 3122 3123 3124 3125 3126 3128 3128 3129 3130 3131 3132 3133 3134 3135 3136 3137 3138 3139 3141 3142 3143 3144 3145 3146
3096 3097 3099 3101 3102 3103 3105 3106 3108 3109 3110 3111 3113 3115 3116 3118 3119 3120 3121 3122 3123 3124 3125 3126 3127 3128 3129 3130 3131 3132 3133 3134 3135 3136 3137 3138 3139 3141 3142 3143 3144 3145
3094 3095 3097 3098 3098 3099 3101 3102 3104 3106 3107 3109 3111 3112 3114 3115 3117 3119 3120 3121 3122 3123 3124 3125 3125 3126 3127 3128 3129 3130 3132 3132 3133 3134 3135 3136 3138 3139 3141 3142 3143 3143
3091 3092 3094 3095 3095 3097 3098 3099 3101 3103 3104 3106 3108 3110 3112 3114 3115 3117 3119 3120 3121 3122 3122 3123 3124 3125 3126 3127 3128 3129 3130 3131 3132 3133 3134 3135 3136 3138 3139 3140 3141 3142
3090 3091 3093 3094 3094 3094 3096 3097 3099 3101 3102 3104 3106 3108 3110 3112 3113 3115 3117 3119 3120 3121 3121 3122 3123 3124 3125 3126 3127 3128 3129 3130 3130 3131 3132 3133 3134 3136 3137 3138 3140 3141
3089 3090 3091 3090 3090 3091 3093 3095 3096 3097 3099 3101 3103 3105 3108 3110 3112 3113 3115 3117 3119 3120 3121 3121 3122 3123 3124 3125 3126 3127 3128 3128 3129 3130 3131 3131 3133 3134 3135 3137 3139 3140
3086 3088 3087 3087 3088 3089 3090 3092 3093 3093 3095 3098 3100 3101 3104 3108 3110 3111 3113 3115 3117 3118 3120 3121 3122 3122 3123 3124 3125 3126 3127 3127 3128 3129 3129 3130 3131 3132 3134 3136 3137 3139
3082 3083 3083 3084 3085 3087 3087 3088 3090 3091 3092 3095 3098 3099 3101 3105 3107 3109 3111 3113 3115 3117 3118 3119 3120 3121 3122 3123 3124 3125 3125 3126 3127 3128 3128 3129 3130 3131 3133 3134 3136 3137
3078 3079 3080 3080 3082 3083 3084 3085 3087 3089 3090 3093 3096 3099 3100 3102 3105 3107 3109 3111 3113 3115 3116 3117 3119 3120 3121 3122 3123 3124 3124 3125 3126 3127 3127 3128 3129 3130 3131 3133 3134 3136
3075 3076 3077 3078 3079 3079 3080 3082 3084 3086 3088 3090 3093 3097 3099 3100 3103 3106 3108 3110 3112 3113 3114 3115 3117 3119 3120 3121 3121 3122 3123 3124 3125 3126 3127 3127 3128 3129 3130 3132 3133 3135
3072 3072 3074 3075 3076 3075 3077 3079 3082 3083 3085 3087 3090 3094 3097 3099 3101 3104 3106 3108 3110 3111 3112 3114 3116 3117 3118 3119 3120 3121 3122 3123 3124 3125 3126 3127 3127 3128 3129 3131 3132 3134
3070 3069 3070 3072 3072 3073 3074 3076 3078 3081 3083 3085 3088 3091 3094 3097 3099 3101 3104 3106 3108 3109 3111 3113 3115 3116 3117 3117 3118 3119 3121 3122 3123 3123 3124 3126 3127 3127 3128 3129 3131 3132
3069 3068 3068 3069 3070 3071 3072 3073 3075 3078 3080 3083 3086 3089 3091 3094 3097 3099 3101 3103 3106 3107 3109 3111 3112 3114 3115 3116 3116 3118 3119 3120 3121 3122 3123 3124 3126 3127 3127 3128 3129 3130
3068 3067 3067 3067 3068 3070 3071 3072 3073 3075 3077 3081 3084 3086 3089 3092 3094 3096 3099 3101 3103 3105 3107 3108 3110 3112 3113 3114 3115 3116 3118 3119 3120 3121 3122 3123 3124 3125 3126 3127 3128 3129
3067 3067 3066 3067 3068 3069 3069 3070 3071 3073 3076 3079 3082 3083 3087 3090 3091 3093 3096 3098 3101 3103 3105 3106 3108 3109 3111 3112 3114 3115 3116 3117 3119 3120 3121 3121 3122 3123 3124 3125 3126 3127
3068 3067 3067 3067 3067 3068 3068 3069 3070 3072 3074 3077 3079 3081 3085 3088 3089 3090 3093 3096 3098 3101 3102 3104 3106 3107 3108 3110 3111 3113 3114 3116 3117 3118 3119 3120 3120 3121 3122 3123 3124 3125
3068 3067 3067 3066 3066 3066 3067 3068 3069 3071 3073 3075 3077 3079 3082 3085 3086 3088 3091 3094 3096 3098 3100 3101 3103 3105 3106 3107 3109 3110 3112 3113 3115 3116 3117 3118 3118 3119 3120 3120 3121 3122
3069 3068 3067 3066 3066 3066 3067 3068 3069 3071 3073 3074 3075 3077 3079 3082 3084 3086 3089 3091 3094 3095 3097 3099 3101 3102 3103 3105 3106 3107 3109 3110 3112 3114 3114 3115 3116 3117 3117 3118 3118 3119
Wind_Speed
20 21 21 17 14 14 16 19 20 19 18 18 17 18 19 19 18 17 16 15 15 14 14 15 15 15 14 14 13 13 13 13 13 12 12 13 13 13 14 13 13 13
20 20 19 14 12 14 16 17 19 19 19 18 18 19 20 19 18 17 17 16 16 15 15 15 15 14 14 14 14 14 13 13 12 12 12 13 13 13 13 14 14 14
21 19 17 15 14 16 16 17 17 19 20 20 20 22 22 20 18 18 17 17 16 16 16 15 15 15 14 14 14 14 14 13 13 13 13 13 13 13 13 14 15 15
22 19 17 17 17 17 18 17 17 18 20 21 22 23 23 20 19 18 17 17 16 16 16 16 15 15 15 15 15 14 15 14 14 14 14 13 12 12 12 13 14 15
23 21 20 18 18 18 19 18 17 18 19 20 22 22 21 20 19 18 17 16 16 16 17 17 16 16 16 15 15 15 15 15 15 15 14 14 13 12 12 13 14 15
24 24 22 19 19 19 19 19 19 19 18 19 21 21 20 20 19 18 17 17 17 17 16 17 16 16 16 16 16 16 16 16 15 15 15 14 14 14 13 13 14 14
25 26 24 21 20 19 20 20 20 20 19 19 21 20 21 22 20 19 18 17 17 17 16 16 16 15 16 16 17 17 17 16 16 16 15 15 15 14 14 14 14 15
25 27 26 25 21 18 19 21 21 21 21 20 20 20 22 23 21 20 19 17 17 17 17 16 16 16 17 17 17 17 17 16 16 16 16 16 15 15 14 14 15 15
25 26 26 25 23 20 20 21 21 22 22 20 19 20 22 22 21 19 18 17 16 17 17 16 16 16 17 17 17 17 16 16 16 16 16 16 16 15 14 15 16 16
24 24 23 24 25 23 21 21 21 23 23 21 20 22 22 22 20 19 17 17 17 17 16 15 16 17 17 17 17 16 16 16 16 16 16 16 16 15 15 15 16 17
25 26 25 26 27 25 23 23 24 24 24 23 22 23 23 22 21 20 18 18 18 17 16 16 16 16 16 16 16 16 16 15 15 16 16 16 16 16 15 16 17 18
26 26 26 26 27 26 25 25 26 26 26 24 22 24 24 24 23 21 20 20 18 17 17 17 15 15 15 16 16 16 15 15 15 15 16 16 16 16 17 18 18 18
26 25 25 26 27 26 26 26 26 26 25 24 23 24 25 25 25 23 22 22 19 18 18 16 14 15 15 15 15 15 15 15 15 14 15 16 17 17 18 19 19 19
29 27 27 27 27 27 26 26 27 27 28 27 27 27 27 27 26 24 25 24 21 18 17 14 13 14 15 15 15 14 14 14 14 14 16 17 17 18 19 19 19 18
32 30 30 29 28 27 25 27 28 29 30 29 29 30 29 28 27 26 26 25 22 19 16 13 13 13 14 15 14 13 13 14 14 15 15 16 16 17 18 19 19 18
33 31 31 30 28 26 25 26 28 28 29 29 30 30 30 30 28 26 25 24 22 18 16 14 13 13 14 14 13 13 13 13 13 13 14 14 14 15 16 18 19 18
31 30 30 28 27 26 26 27 27 28 29 30 31 30 29 31 29 26 25 24 21 19 17 15 13 14 14 13 12 12 12 11 11 11 12 13 13 14 16 18 18 17
26 27 27 26 26 27 27 27 27 29 29 30 32 31 30 31 29 26 25 24 22 20 18 15 14 14 13 11 11 10 10 10 10 10 11 12 13 15 16 18 18 18
22 25 24 24 25 26 26 25 27 29 28 29 31 32 30 31 30 27 26 24 22 21 18 16 15 14 13 11 10 9 9 9 10 11 11 12 14 15 16 18 19 19
18 23 23 22 24 24 24 25 27 28 28 29 31 32 31 30 30 28 26 24 22 20 19 18 17 15 14 12 11 10 10 10 10 12 13 13 14 15 17 18 20 20
12 17 19 19 21 22 24 25 26 28 30 30 32 34 33 30 29 28 26 25 23 22 22 21 19 17 14 14 13 12 12 11 11 12 13 14 14 16 18 20 21 22
12 12 14 15 17 21 24 24 26 29 31 30 32 36 35 31 30 29 28 27 26 25 25 25 22 19 17 16 16 15 15 15 14 14 14 14 14 16 18 20 22 23
13 11 9 11 14 19 23 24 26 29 29 29 33 37 36 33 32 31 30 30 28 26 25 25 23 21 20 19 19 18 18 18 17 16 16 17 17 17 19 20 22 23
14 11 8 11 15 18 21 24 26 28 29 28 31 36 36 33 33 33 33 31 28 25 25 25 24 24 23 22 22 21 20 20 20 19 19 19 19 20 20 21 23 24
14 12 12 13 14 15 18 23 24 26 28 27 29 34 35 33 32 33 34 32 28 26 26 26 26 26 25 25 25 23 23 23 23 22 22 22 23 23 23 25 27 26
12 11 13 13 13 14 16 21 21 21 24 28 32 35 35 32 33 33 32 30 28 28 29 28 28 28 27 27 27 26 26 25 23 22 23 24 25 25 24 26 28 28
Wind_Direction
236 243 240 226 218 230 236 233 231 231 232 229 225 223 222 221 222 222 221 219 221 224 224 223 224 225 226 228 228 225 222 223 225 228 232 233 233 233 233 232 229 225
237 246 255 253 240 243 244 240 237 235 230 225 221 219 218 218 219 219 219 219 222 226 227 226 225 225 225 227 228 227 225 225 228 231 234 237 236 233 231 232 229 226
232 239 261 271 262 255 249 242 239 235 227 219 217 215 212 212 216 216 217 219 222 226 226 226 226 225 226 227 227 228 227 227 227 229 232 235 236 232 227 228 228 228
231 239 257 265 261 257 253 245 236 231 226 219 217 216 210 207 212 214 215 219 221 224 226 226 227 228 229 230 230 230 229 228 226 226 230 232 233 232 229 229 229 228
235 245 254 258 256 254 253 248 237 227 225 222 219 218 212 207 211 213 215 219 220 223 226 227 229 230 231 231 231 230 228 228 228 227 230 232 232 232 232 232 230 227
235 243 249 252 253 249 247 246 239 227 223 223 220 216 211 209 211 212 214 219 221 222 224 227 229 230 230 230 229 228 227 228 230 230 232 233 233 233 231 230 230 227
233 239 245 249 250 248 245 244 238 228 221 222 222 217 209 208 209 209 211 215 219 221 221 224 227 226 227 228 226 227 228 230 232 234 235 236 235 233 230 228 228 225
237 238 242 248 249 248 246 246 244 233 223 218 219 214 208 208 208 205 206 210 215 220 221 222 223 221 221 222 223 226 229 232 235 237 239 239 237 234 230 226 223 221
245 240 242 250 256 256 250 247 247 240 229 219 215 212 211 210 208 203 204 208 215 221 223 222 220 217 218 220 223 228 230 232 235 237 240 239 236 234 230 222 219 220
252 249 247 249 255 258 252 246 244 239 231 223 216 213 213 209 206 207 207 209 218 223 222 218 216 215 219 222 225 228 230 231 233 235 238 238 235 232 226 219 218 221
255 252 249 248 252 255 247 238 236 232 228 225 218 213 211 206 204 209 210 212 220 222 217 214 215 217 219 222 225 228 229 230 232 233 235 236 235 230 223 217 217 219
259 256 255 256 260 260 247 234 230 229 225 220 215 213 210 204 203 207 210 213 218 219 214 214 219 223 224 224 224 226 227 229 232 232 234 235 233 229 223 218 216 218
268 269 269 268 267 262 252 241 237 237 232 219 210 211 209 202 201 205 206 207 210 215 216 215 220 228 230 229 227 225 225 227 231 232 234 234 231 228 224 218 218 221
270 269 268 266 260 255 252 247 239 239 238 225 208 205 205 201 200 202 205 206 208 214 216 214 219 225 229 232 230 226 224 225 228 229 231 233 232 229 225 218 218 222
267 265 263 262 256 251 251 247 237 234 235 225 207 200 199 199 200 202 205 208 208 210 211 211 216 220 225 230 228 222 221 223 226 229 232 234 234 232 226 218 217 220
263 264 264 262 257 251 248 243 236 234 233 220 207 200 194 194 199 202 203 205 205 204 206 211 216 216 221 227 222 215 216 219 223 230 234 236 235 230 224 218 218 221
261 260 262 264 260 252 246 241 234 234 231 217 206 202 193 191 197 201 202 203 201 198 202 210 215 215 217 222 220 217 217 215 216 223 229 233 232 227 220 217 219 219
265 261 260 264 262 252 246 240 230 228 227 215 206 203 197 194 198 201 201 200 198 198 203 207 208 209 213 217 220 223 223 217 211 214 221 225 227 225 219 217 218 217
271 264 258 258 257 251 244 236 227 224 221 211 205 203 198 196 197 199 199 198 198 201 203 203 205 208 214 220 224 229 229 221 211 209 213 217 222 225 222 220 220 220
274 264 257 252 248 246 241 231 223 220 214 206 203 201 198 197 196 196 197 197 201 205 203 203 206 210 217 224 226 228 228 222 214 211 211 212 216 222 223 222 223 223
286 261 251 245 240 241 239 230 223 218 211 205 204 200 196 196 196 196 198 201 204 207 207 206 207 208 214 221 223 225 228 228 226 223 220 216 214 218 221 221 222 224
321 283 253 237 232 234 236 230 225 221 213 205 205 202 197 196 198 198 201 205 208 211 212 213 214 215 217 221 223 227 231 235 237 237 235 231 225 222 222 222 222 224
330 313 274 246 239 238 236 230 224 221 213 204 205 205 200 199 202 201 203 207 211 214 215 217 221 223 222 222 223 226 232 237 240 240 240 240 236 233 231 229 227 226
337 331 300 263 251 245 241 232 221 215 210 206 209 208 202 200 203 204 205 209 213 217 218 220 224 226 226 227 227 227 231 235 237 238 240 242 242 240 238 236 235 233
341 334 312 282 262 254 246 234 221 213 212 211 209 204 198 198 205 208 208 212 218 222 223 224 226 228 230 232 233 232 233 235 237 238 239 240 241 242 242 243 240 237
338 325 309 289 265 251 238 227 221 218 217 211 203 199 196 199 205 207 209 215 221 225 226 227 228 229 231 234 235 236 235 235 236 239 240 240 241 242 244 242 235 229